Regional Weather Roundup
Issued by NWS Newport/Morehead, NC

Current Version | Previous Version | Text Only | Print | Product List | Glossary Off
Versions: 1 2 3 4 5 6 7 8 9 10 11 12 13 14 15 16 17 18 19 20 21 22 23 24 25 26 27 28 29 30 31 32 33 34 35 36 37 38 39 40 41 42 43 44 45 46 47 48 49 50
000 ASUS42 KMHX 011713 RWRMHX WEATHER ROUNDUP FOR EASTERN NORTH CAROLINA NATIONAL WEATHER SERVICE NEWPORT/MOREHEAD CITY NC 100 PM EDT SAT AUG 01 2015 NOTE: "FAIR" INDICATES FEW OR NO CLOUDS BELOW 12,000 FEET WITH NO SIGNIFICANT WEATHER AND/OR OBSTRUCTIONS TO VISIBILITY NCZ015>017-031-032-045>047-102-103-011800- NORTH COAST CITY SKY/WX TMP DP RH WIND PRES REMARKS EDENTON N/A 88 67 50 S5 29.92F ELIZABETH CITY MOSUNNY 89 68 49 SE6 29.92F KITTY HAWK PTSUNNY 88 72 60 S7 29.92F MANTEO PTSUNNY 82 74 77 S13 29.94F $$ NCZ045>047-081-094-103-104-011800- CENTRAL COAST CITY SKY/WX TMP DP RH WIND PRES REMARKS FRISCO CLOUDY 84 74 71 S8 29.93F SWANQUARTER N/A 84 N/A N/A SE8 29.88F $$ NCZ095-097-098-100-101-011800- SOUTHERN COAST CITY SKY/WX TMP DP RH WIND PRES REMARKS BEAUFORT PTSUNNY 83 77 82 SW10 29.93F CEDAR ISLAND N/A 88 N/A N/A SE6G12 29.97S JACKSONVILLE PTSUNNY 88 69 53 CALM 29.92F PINEY ISLAND LGT RAIN N/A N/A N/A CALM 29.91F WILMINGTON MOSUNNY 87 73 62 CALM 29.93F $$ NCZ011>013-027>030-043-044-078>080-089-090>093-098-011800- COASTAL PLAIN CITY SKY/WX TMP DP RH WIND PRES REMARKS AHOSKIE SUNNY 88 60 38 CALM 29.92F CLINTON SUNNY 91 66 43 CALM 29.94F ELIZABETHTOWN SUNNY 91 62 36 NE3 29.93F GOLDSBORO MOSUNNY 91 66 42 VRB2 29.91F GREENVILLE SUNNY 90 59 35 CALM 29.94F HAVELOCK LGT RAIN 79 73 82 N9 29.93F KENANSVILLE SUNNY N/A N/A N/A W3 29.94F KINSTON SUNNY 90 61 37 NE5 29.93F NEW BERN MOSUNNY 91 71 51 NW6 29.93F RICHLANDS SUNNY 90 63 40 CALM 29.93F ROCKY MOUNT SUNNY 90 57 32 NW5 29.93F WASHINGTON MOSUNNY 88 63 43 CALM 29.92F WHITEVILLE SUNNY 89 68 49 SE5 29.93F $$ AMZ130-135-150-152-154-156-158-170-250-252-270-ANZ085-086-088-633-658-670-011800- MARINE OBSERVATIONS STATION/POSITION TIME TEMP WIND PRES WAVE SWELL AIR SEA DIR/SP/G HT/PER HT/PER (UTC) (F) (DEG/KT/KT) (MB) (FT/S) (FT/S) CHESAPEAKE LIGHT 1700 81 170/ 11/ 11 1013.5 64 E VA BEACH 1650 81 81 200/ 14/ 16 1013.2 3/ 8 3/ 8 DUCK 1600 80 79 130/ 13/ 15 1012.9 2 E DUCK 1611 79 N/A 2/ 8 2/13 OREGON INLET 1600 79 81 180/ 12/ 15 1014.1 13E OREGON INLT 1700 81 N/A 4/ 8 2/12 HATTERAS CG 1600 80 80 140/ 15/ 17 1013.7 DIAMOND BUOY 1650 80 85 170/ 10/ 12 1013.4 3/ 7 3/ 7 CAPE LOOKOUT 1700 83 240/ 8/ 10 1013.1 BEAUFORT LAB 1600 83 82 210/ 4/ 8 1013.2 30 SE NEW RVR IN NOT AVBL 27 SE WRIGHTSVLE 1600 77 82 220/ 10/ 12 N/A 5 SE WRIGHTSVLE 1608 81 83 230/ 6/ 10 1014.0 225 S CAPE HAT 1650 83 81 220/ 16/ 19 1016.7 6/ 7 2/10 41 SE CHARLESTON 1650 78 84 140/ 14/ 16 1014.3 3/ 7 2/ 7 $$

USA.gov is the U.S. government's official web portal to all federal, state and local government web resources and services.